Retour au catalogue

TITAN 3C TRANSTAGE DEB

ActifHEO
NORAD 26782·DEBRIS·🇺🇸 United States

Lancé Dec 21, 1965 depuis Cape Canaveral Space Force Station

Loading…

Prochains Passages (prochaines 24 heures)

TLE

FraisSource: Space-Track

Époque: Sep 13, 2026, 00:56 UTC

1 26782U 65108BA  26256.03894032  .00032917 -20181-5  12980-2 0  9997
2 26782  26.4416  51.5217 2739578 266.0929  62.5904  9.88895361421815

Suivez TITAN 3C TRANSTAGE DEB en temps réel avec AllMySat

Download on the App Store